AFR32A TFFR-LFPG

Flight info

Callsign AFR32A
Flight time N/A
Altitude 35000
Route CAIRN2R CAIRN DCT CITRS/M083F350 DCT 22N055W 27N050W 31N045W 34N040W DCT FRS/M083F370 DCT 40N030W 45N020W 46N015W DCT SEPAL DCT LAPEX/N0470F380 DCT COQUE DCT AKEMO UN471 NTS/N0453F300 UN741 KEPER
Aircraft B77W/H-SDE1E2E3FGHIJ2J3J4J5M1RWXY/LB1D1

Departure

Time 2026-04-20 09:41
Airport Maryse Condé International Airport (TFFR)

Arrival

Time N/A
Airport Charles de Gaulle International Airport (LFPG)
Time Latitude Longitude Altitude Speed Heading
2026-04-20 09:04 16.26904 -61.52675 26 ft 0 kts 10°
2026-04-20 09:31 16.26900 -61.52676 26 ft 3 kts
2026-04-20 09:31 16.26873 -61.52679 31 ft 4 kts
2026-04-20 09:31 16.26846 -61.52678 31 ft 4 kts 348°
2026-04-20 09:31 16.26821 -61.52669 31 ft 4 kts 325°
2026-04-20 09:32 16.26807 -61.52653 31 ft 1 kts 282°
2026-04-20 09:32 16.26807 -61.52652 31 ft 0 kts 282°
2026-04-20 09:35 16.26810 -61.52667 31 ft 4 kts 281°
2026-04-20 09:35 16.26816 -61.52697 30 ft 6 kts 281°
2026-04-20 09:35 16.26830 -61.52774 27 ft 13 kts 281°
2026-04-20 09:35 16.26847 -61.52866 26 ft 13 kts 276°
2026-04-20 09:36 16.26797 -61.52934 30 ft 13 kts 200°
2026-04-20 09:36 16.26709 -61.52955 30 ft 13 kts 191°
2026-04-20 09:36 16.26621 -61.52972 30 ft 13 kts 191°
2026-04-20 09:36 16.26535 -61.52992 28 ft 13 kts 205°
2026-04-20 09:37 16.26511 -61.53076 27 ft 13 kts 278°
2026-04-20 09:37 16.26527 -61.53168 27 ft 13 kts 281°
2026-04-20 09:37 16.26549 -61.53287 25 ft 24 kts 281°
2026-04-20 09:37 16.26587 -61.53490 27 ft 30 kts 280°
2026-04-20 09:38 16.26626 -61.53704 27 ft 30 kts 281°
2026-04-20 09:38 16.26666 -61.53916 27 ft 30 kts 281°
2026-04-20 09:38 16.26705 -61.54129 24 ft 30 kts 281°
2026-04-20 09:38 16.26744 -61.54343 19 ft 30 kts 281°
2026-04-20 09:39 16.26783 -61.54554 17 ft 28 kts 281°
2026-04-20 09:39 16.26823 -61.54697 18 ft 17 kts 306°
2026-04-20 09:39 16.26858 -61.54755 20 ft 7 kts 263°
2026-04-20 09:39 16.26827 -61.54767 19 ft 4 kts 142°
2026-04-20 09:40 16.26816 -61.54732 18 ft 6 kts 103°
2026-04-20 09:40 16.26810 -61.54694 18 ft 6 kts 100°
2026-04-20 09:40 16.26800 -61.54637 17 ft 17 kts 101°
2026-04-20 09:40 16.26751 -61.54375 19 ft 67 kts 101°
2026-04-20 09:41 16.26616 -61.53649 28 ft 135 kts 101°
2026-04-20 09:41 16.26402 -61.52478 38 ft 188 kts 101°
2026-04-20 09:41 16.26156 -61.51138 583 ft 191 kts 100°
2026-04-20 09:41 16.25906 -61.49839 1492 ft 174 kts 98°
2026-04-20 09:42 16.25672 -61.48611 2136 ft 176 kts 97°
2026-04-20 09:42 16.25426 -61.47262 2370 ft 200 kts 99°
2026-04-20 09:42 16.25170 -61.45802 2725 ft 218 kts 98°
2026-04-20 09:42 16.24891 -61.44163 3089 ft 234 kts 97°
2026-04-20 09:43 16.24659 -61.42481 3744 ft 235 kts 87°
2026-04-20 09:43 16.25084 -61.40859 4264 ft 243 kts 58°
2026-04-20 09:43 16.26227 -61.39522 4917 ft 246 kts 48°
2026-04-20 09:43 16.27386 -61.38196 5503 ft 253 kts 51°
2026-04-20 09:44 16.28542 -61.36801 6284 ft 253 kts 51°
2026-04-20 09:44 16.29684 -61.35382 6914 ft 257 kts 52°
2026-04-20 09:44 16.30846 -61.33927 7446 ft 265 kts 51°
2026-04-20 09:44 16.32047 -61.32434 8061 ft 269 kts 50°
2026-04-20 09:45 16.33243 -61.30957 8804 ft 271 kts 50°
2026-04-20 09:45 16.34477 -61.29439 9392 ft 276 kts 49°
2026-04-20 09:45 16.35712 -61.27926 10069 ft 277 kts 49°
2026-04-20 09:45 16.36987 -61.26368 10533 ft 289 kts 49°
2026-04-20 09:46 16.38350 -61.24705 10692 ft 312 kts 49°
2026-04-20 09:46 16.39799 -61.22940 10825 ft 336 kts 49°
2026-04-20 09:46 16.41387 -61.21006 10999 ft 358 kts 48°
2026-04-20 09:46 16.43016 -61.19021 11477 ft 369 kts 49°
2026-04-20 09:47 16.44718 -61.16944 11996 ft 380 kts 48°
2026-04-20 09:47 16.46458 -61.14821 12745 ft 386 kts 47°
2026-04-20 09:47 16.48204 -61.12693 13474 ft 392 kts 47°
2026-04-20 09:47 16.49990 -61.10515 14165 ft 398 kts 47°
2026-04-20 09:48 16.51802 -61.08306 14835 ft 403 kts 47°
2026-04-20 09:48 16.53616 -61.06093 15484 ft 408 kts 47°
2026-04-20 09:48 16.55485 -61.03812 16170 ft 414 kts 48°
2026-04-20 09:48 16.56725 -61.02296 16586 ft 418 kts 47°
2026-04-20 09:49 16.58625 -60.99977 17240 ft 423 kts 47°
2026-04-20 09:49 16.61189 -60.96845 18096 ft 430 kts 47°
2026-04-20 09:49 16.62489 -60.95257 18504 ft 434 kts 47°
2026-04-20 09:49 16.64468 -60.92839 19077 ft 438 kts 47°
2026-04-20 09:50 16.66452 -60.90411 19683 ft 442 kts 47°
2026-04-20 09:50 16.68461 -60.87952 20280 ft 445 kts 47°
2026-04-20 09:50 16.70465 -60.85500 20850 ft 449 kts 47°
2026-04-20 09:50 16.72501 -60.83007 21415 ft 454 kts 47°
2026-04-20 09:51 16.74562 -60.80483 21969 ft 458 kts 46°
2026-04-20 09:51 16.76618 -60.77965 22510 ft 463 kts 46°
2026-04-20 09:51 16.78726 -60.75382 23034 ft 467 kts 46°
2026-04-20 09:51 16.80843 -60.72785 23549 ft 471 kts 46°
2026-04-20 09:52 16.82985 -60.70158 23979 ft 476 kts 46°
2026-04-20 09:52 16.85118 -60.67540 24372 ft 480 kts 46°
2026-04-20 09:52 16.87303 -60.64857 24746 ft 486 kts 47°
2026-04-20 09:52 16.89514 -60.62141 25116 ft 491 kts 47°
2026-04-20 09:53 16.91720 -60.59432 25482 ft 496 kts 47°
2026-04-20 09:53 16.93927 -60.56635 25842 ft 501 kts 49°
2026-04-20 09:53 16.96035 -60.53692 26204 ft 507 kts 52°
2026-04-20 09:53 16.98061 -60.50701 26555 ft 512 kts 53°
2026-04-20 09:54 17.00107 -60.47621 26897 ft 516 kts 53°
2026-04-20 09:54 17.02170 -60.44513 27175 ft 522 kts 53°
2026-04-20 09:54 17.04253 -60.41403 27363 ft 530 kts 52°
2026-04-20 09:54 17.06396 -60.38233 27680 ft 534 kts 52°
2026-04-20 09:55 17.08559 -60.35056 28146 ft 534 kts 52°
2026-04-20 09:55 17.10692 -60.31932 28654 ft 534 kts 52°
2026-04-20 09:55 17.12868 -60.28753 28911 ft 538 kts 52°
2026-04-20 09:55 17.15067 -60.25541 29114 ft 544 kts 52°
2026-04-20 09:56 17.17248 -60.22353 29421 ft 546 kts 52°
2026-04-20 09:56 17.19465 -60.19107 29828 ft 547 kts 52°
2026-04-20 09:56 17.21683 -60.15856 30170 ft 549 kts 52°
2026-04-20 09:56 17.23898 -60.12608 30177 ft 559 kts 52°
2026-04-20 09:57 17.26177 -60.09264 30365 ft 563 kts 53°
2026-04-20 09:57 17.28452 -60.05922 30720 ft 563 kts 53°
2026-04-20 09:57 17.30731 -60.02572 31068 ft 563 kts 53°
2026-04-20 09:57 17.32973 -59.99275 31537 ft 559 kts 53°
2026-04-20 09:58 17.35217 -59.95973 32111 ft 555 kts 53°
2026-04-20 09:58 17.37464 -59.92667 32411 ft 557 kts 53°
2026-04-20 09:58 17.39725 -59.89340 32614 ft 561 kts 53°
2026-04-20 09:58 17.41983 -59.86016 32714 ft 567 kts 54°
2026-04-20 09:59 17.44292 -59.82614 32828 ft 572 kts 54°
2026-04-20 09:59 17.46578 -59.79246 33084 ft 574 kts 54°
2026-04-20 09:59 17.48893 -59.75831 33386 ft 574 kts 54°
2026-04-20 09:59 17.51219 -59.72399 33680 ft 575 kts 54°
2026-04-20 10:00 17.53514 -59.69010 33928 ft 576 kts 54°
2026-04-20 10:00 17.55844 -59.65568 34166 ft 578 kts 54°
2026-04-20 10:00 17.58167 -59.62135 34534 ft 575 kts 54°
2026-04-20 10:00 17.60457 -59.58749 34890 ft 573 kts 54°
2026-04-20 10:01 17.62772 -59.55325 34991 ft 577 kts 54°
2026-04-20 10:01 17.65109 -59.51866 35040 ft 580 kts 54°
2026-04-20 10:01 17.69755 -59.44985 35047 ft 577 kts 54°
2026-04-20 10:02 17.74359 -59.38157 35064 ft 573 kts 54°
2026-04-20 10:02 17.78951 -59.31341 35064 ft 572 kts 54°
2026-04-20 10:03 17.83543 -59.24518 35073 ft 574 kts 54°
2026-04-20 10:03 17.88162 -59.17646 35072 ft 576 kts 54°
2026-04-20 10:04 17.92768 -59.10786 35071 ft 578 kts 54°
2026-04-20 10:04 17.97424 -59.03849 35070 ft 579 kts 54°
2026-04-20 10:05 18.02563 -58.97353 35059 ft 578 kts 42°
2026-04-20 10:05 18.08477 -58.91656 35069 ft 579 kts 39°
2026-04-20 10:06 18.14438 -58.86020 35078 ft 579 kts 39°
2026-04-20 10:06 18.20382 -58.80319 35074 ft 579 kts 40°
2026-04-20 10:07 18.26323 -58.74561 35070 ft 578 kts 40°
2026-04-20 10:07 18.32213 -58.68835 35082 ft 577 kts 40°
2026-04-20 10:08 18.38100 -58.63114 35073 ft 575 kts 40°
2026-04-20 10:08 18.43995 -58.57384 35072 ft 574 kts 40°
2026-04-20 10:09 18.49833 -58.51707 35074 ft 572 kts 40°
2026-04-20 10:09 18.55665 -58.46030 35060 ft 572 kts 40°
2026-04-20 10:10 18.61540 -58.40306 35087 ft 574 kts 40°
2026-04-20 10:10 18.67414 -58.34577 35089 ft 577 kts 40°
2026-04-20 10:11 18.73298 -58.28832 35086 ft 580 kts 40°
2026-04-20 10:11 18.79230 -58.23033 35112 ft 582 kts 40°
2026-04-20 10:12 18.85151 -58.17237 35064 ft 581 kts 40°
2026-04-20 10:12 18.91105 -58.11405 35083 ft 581 kts 40°
2026-04-20 10:13 18.97021 -58.05604 35088 ft 581 kts 40°
2026-04-20 10:13 19.02934 -57.99801 35118 ft 580 kts 40°
2026-04-20 10:14 19.08823 -57.94016 35071 ft 579 kts 40°
2026-04-20 10:14 19.14732 -57.88206 35089 ft 578 kts 40°
2026-04-20 10:15 19.20599 -57.82430 35090 ft 578 kts 41°
2026-04-20 10:15 19.26521 -57.76595 35093 ft 580 kts 41°
2026-04-20 10:16 19.32406 -57.70789 35086 ft 580 kts 40°
2026-04-20 10:16 19.38291 -57.64977 35099 ft 579 kts 41°
2026-04-20 10:17 19.44180 -57.59156 35097 ft 580 kts 41°
2026-04-20 10:17 19.50092 -57.53306 35097 ft 581 kts 41°
2026-04-20 10:18 19.55975 -57.47478 35096 ft 580 kts 40°
2026-04-20 10:18 19.61887 -57.41615 35093 ft 579 kts 40°
2026-04-20 10:19 19.67743 -57.35802 35072 ft 578 kts 41°
2026-04-20 10:19 19.73628 -57.29955 35087 ft 580 kts 41°
2026-04-20 10:20 19.79502 -57.24111 35110 ft 581 kts 40°
2026-04-20 10:20 19.85395 -57.18243 35103 ft 580 kts 40°
2026-04-20 10:21 19.91267 -57.12388 35091 ft 579 kts 40°
2026-04-20 10:21 19.97153 -57.06514 35092 ft 578 kts 41°
2026-04-20 10:22 20.03018 -57.00655 35116 ft 579 kts 41°
2026-04-20 10:22 20.08890 -56.94783 35104 ft 579 kts 41°
2026-04-20 10:23 20.14751 -56.88915 35104 ft 578 kts 41°
2026-04-20 10:23 20.20585 -56.83068 35091 ft 578 kts 41°
2026-04-20 10:24 20.26425 -56.77207 35114 ft 578 kts 41°
2026-04-20 10:24 20.32272 -56.71335 35107 ft 578 kts 41°
2026-04-20 10:25 20.38117 -56.65457 35112 ft 578 kts 41°
2026-04-20 10:25 20.43984 -56.59551 35111 ft 578 kts 41°
2026-04-20 10:26 20.49833 -56.53656 35114 ft 577 kts 41°
2026-04-20 10:26 20.55639 -56.47800 35115 ft 576 kts 41°
2026-04-20 10:27 20.61492 -56.41888 35117 ft 576 kts 41°
2026-04-20 10:27 20.67285 -56.36030 35115 ft 575 kts 41°
2026-04-20 10:28 20.73081 -56.30164 35125 ft 574 kts 41°
2026-04-20 10:28 20.78881 -56.24287 35126 ft 574 kts 41°
2026-04-20 10:29 20.84671 -56.18413 35123 ft 575 kts 41°
2026-04-20 10:29 20.90459 -56.12535 35126 ft 576 kts 41°
2026-04-20 10:30 20.96249 -56.06648 35127 ft 577 kts 41°
2026-04-20 10:30 21.02099 -56.00693 35128 ft 578 kts 41°
2026-04-20 10:31 21.07916 -55.94765 35129 ft 579 kts 41°
2026-04-20 10:31 21.13722 -55.88841 35148 ft 578 kts 41°
2026-04-20 10:32 21.19564 -55.82874 35116 ft 576 kts 41°
2026-04-20 10:32 21.25330 -55.76977 35100 ft 574 kts 41°
2026-04-20 10:33 21.31119 -55.71052 35134 ft 573 kts 41°
2026-04-20 10:33 21.36874 -55.65155 35156 ft 574 kts 41°
2026-04-20 10:34 21.42630 -55.59248 35130 ft 574 kts 41°
2026-04-20 10:35 21.51262 -55.50378 35109 ft 573 kts 41°
2026-04-20 10:35 21.57045 -55.44427 35175 ft 574 kts 41°
2026-04-20 10:36 21.62803 -55.38495 35139 ft 574 kts 41°
2026-04-20 10:36 21.67608 -55.33539 35137 ft 573 kts 41°
2026-04-20 10:37 21.74270 -55.26660 35132 ft 571 kts 41°
2026-04-20 10:37 21.79049 -55.21720 35146 ft 572 kts 41°
2026-04-20 10:38 21.84779 -55.15791 35146 ft 572 kts 41°
2026-04-20 10:38 21.90527 -55.09835 35139 ft 572 kts 41°
2026-04-20 10:39 21.96267 -55.03879 35137 ft 572 kts 41°
2026-04-20 10:39 22.01995 -54.97965 35151 ft 572 kts 39°
2026-04-20 10:40 22.07953 -54.92268 35144 ft 571 kts 37°
2026-04-20 10:40 22.13963 -54.86699 35143 ft 571 kts 37°
2026-04-20 10:41 22.19950 -54.81087 35146 ft 571 kts 38°
2026-04-20 10:41 22.25900 -54.75434 35152 ft 569 kts 38°
2026-04-20 10:42 22.31822 -54.69779 35138 ft 567 kts 38°
2026-04-20 10:42 22.37715 -54.64151 35147 ft 566 kts 38°
2026-04-20 10:43 22.43598 -54.58533 35153 ft 566 kts 38°
2026-04-20 10:43 22.49517 -54.52876 35152 ft 565 kts 38°
2026-04-20 10:44 22.55397 -54.47249 35128 ft 565 kts 38°
2026-04-20 10:44 22.61262 -54.41630 35154 ft 565 kts 38°
2026-04-20 10:45 22.67186 -54.35947 35184 ft 567 kts 39°
2026-04-20 10:45 22.73069 -54.30296 35155 ft 567 kts 39°
2026-04-20 10:46 22.78940 -54.24649 35149 ft 565 kts 39°
2026-04-20 10:46 22.84836 -54.18972 35147 ft 565 kts 38°
2026-04-20 10:47 22.90696 -54.13323 35167 ft 565 kts 39°
2026-04-20 10:47 22.96597 -54.07628 35162 ft 564 kts 39°
2026-04-20 10:48 23.02423 -54.01998 35161 ft 562 kts 39°
2026-04-20 10:48 23.08244 -53.96366 35148 ft 562 kts 38°
2026-04-20 10:49 23.14097 -53.90698 35170 ft 565 kts 39°
2026-04-20 10:49 23.19997 -53.84978 35173 ft 568 kts 39°
2026-04-20 10:50 23.25890 -53.79255 35175 ft 570 kts 39°
2026-04-20 10:50 23.31766 -53.73539 35144 ft 562 kts 39°
2026-04-20 10:51 23.37562 -53.67895 35167 ft 561 kts 39°
2026-04-20 10:51 23.43393 -53.62216 35179 ft 566 kts 39°
2026-04-20 10:52 23.49288 -53.56466 35206 ft 568 kts 39°
2026-04-20 10:52 23.55059 -53.50821 35169 ft 552 kts 39°
2026-04-20 10:53 23.60759 -53.45243 35169 ft 549 kts 39°
2026-04-20 10:53 23.66434 -53.39688 35178 ft 550 kts 39°
2026-04-20 10:54 23.72132 -53.34103 35191 ft 551 kts 39°
2026-04-20 10:54 23.77852 -53.28487 35172 ft 551 kts 39°
2026-04-20 10:55 23.83536 -53.22898 35159 ft 550 kts 39°
2026-04-20 10:55 23.89208 -53.17316 35204 ft 551 kts 39°
2026-04-20 10:56 23.94911 -53.11695 35178 ft 550 kts 39°
2026-04-20 10:56 24.00584 -53.06098 35178 ft 548 kts 39°
2026-04-20 10:57 24.06222 -53.00527 35166 ft 546 kts 39°
2026-04-20 10:57 24.11837 -52.94973 35213 ft 546 kts 40°
2026-04-20 10:58 24.17475 -52.89389 35188 ft 544 kts 40°
2026-04-20 10:58 24.23098 -52.83814 35184 ft 542 kts 40°
2026-04-20 10:59 24.28664 -52.78287 35188 ft 541 kts 40°
2026-04-20 10:59 24.34222 -52.72762 35190 ft 539 kts 40°
2026-04-20 11:00 24.39764 -52.67247 35194 ft 538 kts 40°
2026-04-20 11:00 24.45327 -52.61704 35198 ft 537 kts 40°
2026-04-20 11:01 24.50862 -52.56181 35221 ft 537 kts 40°
2026-04-20 11:01 24.56384 -52.50664 35183 ft 536 kts 40°
2026-04-20 11:02 24.61885 -52.45162 35195 ft 536 kts 40°
2026-04-20 11:02 24.67370 -52.39669 35203 ft 536 kts 40°
2026-04-20 11:03 24.72893 -52.34131 35211 ft 535 kts 40°
2026-04-20 11:03 24.78359 -52.28642 35201 ft 534 kts 40°
2026-04-20 11:04 24.83858 -52.23115 35197 ft 534 kts 40°
2026-04-20 11:04 24.89334 -52.17603 35222 ft 533 kts 40°
2026-04-20 11:05 24.94796 -52.12099 35208 ft 533 kts 40°
2026-04-20 11:05 25.00271 -52.06573 35204 ft 532 kts 40°
2026-04-20 11:06 25.05709 -52.01080 35197 ft 532 kts 40°
2026-04-20 11:06 25.11169 -51.95557 35212 ft 533 kts 40°
2026-04-20 11:07 25.16643 -51.90014 35212 ft 535 kts 40°
2026-04-20 11:07 25.22137 -51.84441 35210 ft 536 kts 40°
2026-04-20 11:08 25.27627 -51.78866 35202 ft 537 kts 40°
2026-04-20 11:08 25.33097 -51.73305 35206 ft 536 kts 40°
2026-04-20 11:09 25.38611 -51.67689 35206 ft 536 kts 40°
2026-04-20 11:09 25.44070 -51.62125 35228 ft 535 kts 41°
2026-04-20 11:10 25.49500 -51.56581 35198 ft 532 kts 40°
2026-04-20 11:10 25.54949 -51.51012 35209 ft 530 kts 40°
2026-04-20 11:11 25.60359 -51.45476 35209 ft 530 kts 40°
2026-04-20 11:11 25.65763 -51.39939 35219 ft 529 kts 41°
2026-04-20 11:12 25.71156 -51.34406 35208 ft 528 kts 41°
2026-04-20 11:12 25.76534 -51.28879 35207 ft 528 kts 41°
2026-04-20 11:13 25.81947 -51.23313 35236 ft 529 kts 41°
2026-04-20 11:13 25.87351 -51.17747 35218 ft 529 kts 41°
2026-04-20 11:14 25.92719 -51.12209 35211 ft 529 kts 41°
2026-04-20 11:14 25.98115 -51.06636 35214 ft 527 kts 41°
2026-04-20 11:15 26.03477 -51.01092 35219 ft 525 kts 41°
2026-04-20 11:15 26.08810 -50.95569 35211 ft 523 kts 41°
2026-04-20 11:16 26.14115 -50.90069 35215 ft 521 kts 41°
2026-04-20 11:16 26.19423 -50.84560 35221 ft 520 kts 41°
2026-04-20 11:17 26.24693 -50.79081 35223 ft 519 kts 41°
2026-04-20 11:17 26.29953 -50.73607 35223 ft 519 kts 41°
2026-04-20 11:18 26.35246 -50.68090 35237 ft 519 kts 42°
2026-04-20 11:18 26.40489 -50.62619 35212 ft 519 kts 42°
2026-04-20 11:19 26.45775 -50.57095 35221 ft 519 kts 42°
2026-04-20 11:19 26.51024 -50.51603 35223 ft 519 kts 42°
2026-04-20 11:20 26.56299 -50.46076 35230 ft 518 kts 42°
2026-04-20 11:20 26.61537 -50.40581 35209 ft 518 kts 42°
2026-04-20 11:21 26.66807 -50.35045 35224 ft 517 kts 42°
2026-04-20 11:21 26.72033 -50.29549 35235 ft 517 kts 42°
2026-04-20 11:22 26.77256 -50.24046 35224 ft 516 kts 42°
2026-04-20 11:22 26.82483 -50.18534 35215 ft 516 kts 42°
2026-04-20 11:23 26.87697 -50.13027 35227 ft 516 kts 42°
2026-04-20 11:23 26.92053 -50.08420 35231 ft 516 kts 42°
2026-04-20 11:24 26.98123 -50.01992 35230 ft 517 kts 42°
2026-04-20 11:24 27.02466 -49.97303 35228 ft 518 kts 44°
2026-04-20 11:25 27.07422 -49.91459 35240 ft 518 kts 46°
2026-04-20 11:25 27.12322 -49.85542 35235 ft 519 kts 46°
2026-04-20 11:26 27.17251 -49.79649 35234 ft 519 kts 46°
2026-04-20 11:26 27.22230 -49.73749 35236 ft 518 kts 46°
2026-04-20 11:27 27.27193 -49.67876 35228 ft 518 kts 46°
2026-04-20 11:27 27.32137 -49.62015 35237 ft 517 kts 46°
2026-04-20 11:28 27.37067 -49.56157 35249 ft 517 kts 46°
2026-04-20 11:28 27.41996 -49.50291 35224 ft 516 kts 46°
2026-04-20 11:29 27.46923 -49.44420 35237 ft 515 kts 46°
2026-04-20 11:29 27.51857 -49.38531 35237 ft 516 kts 46°
2026-04-20 11:30 27.56766 -49.32665 35242 ft 515 kts 46°
2026-04-20 11:30 27.61700 -49.26760 35231 ft 515 kts 46°
2026-04-20 11:31 27.66582 -49.20910 35241 ft 515 kts 46°
2026-04-20 11:31 27.71479 -49.15033 35250 ft 514 kts 46°
2026-04-20 11:32 27.76385 -49.09137 35239 ft 514 kts 46°
2026-04-20 11:32 27.81252 -49.03280 35233 ft 513 kts 46°
2026-04-20 11:33 27.86161 -48.97364 35257 ft 514 kts 46°
2026-04-20 11:33 27.91029 -48.91490 35244 ft 513 kts 46°
2026-04-20 11:34 27.95917 -48.85582 35241 ft 513 kts 46°
2026-04-20 11:34 28.00765 -48.79715 35256 ft 512 kts 47°
2026-04-20 11:35 28.05639 -48.73808 35242 ft 511 kts 47°
2026-04-20 11:35 28.10466 -48.67949 35242 ft 510 kts 47°
2026-04-20 11:36 28.15318 -48.62052 35240 ft 509 kts 46°
2026-04-20 11:36 28.20127 -48.56199 35252 ft 508 kts 47°
2026-04-20 11:37 28.24934 -48.50340 35247 ft 508 kts 47°
2026-04-20 11:37 28.32130 -48.41553 35249 ft 507 kts 47°
2026-04-20 11:38 28.36927 -48.35685 35248 ft 507 kts 47°
2026-04-20 11:38 28.41750 -48.29777 35247 ft 508 kts 47°
2026-04-20 11:39 28.46529 -48.23914 35251 ft 508 kts 47°
2026-04-20 11:39 28.51344 -48.17999 35244 ft 509 kts 47°
2026-04-20 11:40 28.56148 -48.12089 35250 ft 510 kts 47°
2026-04-20 11:40 28.60974 -48.06142 35256 ft 511 kts 47°
2026-04-20 11:41 28.65759 -48.00239 35242 ft 511 kts 47°
2026-04-20 11:41 28.70599 -47.94259 35248 ft 510 kts 47°
2026-04-20 11:42 28.75406 -47.88310 35253 ft 510 kts 47°
2026-04-20 11:42 28.80197 -47.82373 35257 ft 509 kts 47°
2026-04-20 11:43 28.84994 -47.76419 35246 ft 509 kts 47°
2026-04-20 11:43 28.89754 -47.70503 35252 ft 508 kts 47°
2026-04-20 11:44 28.94515 -47.64577 35257 ft 507 kts 47°
2026-04-20 11:44 28.99286 -47.58630 35245 ft 506 kts 47°
2026-04-20 11:45 29.04048 -47.52684 35255 ft 506 kts 47°
2026-04-20 11:45 29.08774 -47.46776 35264 ft 506 kts 47°
2026-04-20 11:46 29.13530 -47.40822 35257 ft 506 kts 47°
2026-04-20 11:46 29.18250 -47.34903 35254 ft 505 kts 47°
2026-04-20 11:47 29.22991 -47.28949 35264 ft 505 kts 47°
2026-04-20 11:47 29.27743 -47.22973 35257 ft 505 kts 47°
2026-04-20 11:48 29.32463 -47.17029 35251 ft 505 kts 47°
2026-04-20 11:48 29.37178 -47.11081 35268 ft 504 kts 47°
2026-04-20 11:49 29.41887 -47.05133 35257 ft 504 kts 47°
2026-04-20 11:49 29.46577 -46.99198 35261 ft 504 kts 47°
2026-04-20 11:50 29.51293 -46.93224 35264 ft 503 kts 47°
2026-04-20 11:50 29.55962 -46.87300 35263 ft 503 kts 47°
2026-04-20 11:51 29.60679 -46.81305 35266 ft 502 kts 47°
2026-04-20 11:51 29.65341 -46.75371 35274 ft 502 kts 47°
2026-04-20 11:52 29.70016 -46.69413 35262 ft 501 kts 47°
2026-04-20 11:52 29.74662 -46.63482 35263 ft 501 kts 47°
2026-04-20 11:53 29.79327 -46.57519 35270 ft 500 kts 48°
2026-04-20 11:53 29.83990 -46.51548 35265 ft 499 kts 47°
2026-04-20 11:54 29.88611 -46.45623 35267 ft 499 kts 48°
2026-04-20 11:54 29.93262 -46.39649 35267 ft 499 kts 48°
2026-04-20 11:55 29.97877 -46.33714 35261 ft 499 kts 47°
2026-04-20 11:55 30.02510 -46.27747 35268 ft 500 kts 48°
2026-04-20 11:56 30.07165 -46.21741 35266 ft 500 kts 48°
2026-04-20 11:56 30.11806 -46.15745 35255 ft 501 kts 48°
2026-04-20 11:57 30.16437 -46.09753 35270 ft 501 kts 48°
2026-04-20 11:57 30.21069 -46.03749 35277 ft 501 kts 48°
2026-04-20 11:58 30.25689 -45.97753 35267 ft 501 kts 48°
2026-04-20 11:58 30.30317 -45.91736 35272 ft 500 kts 48°
2026-04-20 11:59 30.34955 -45.85698 35272 ft 500 kts 48°
2026-04-20 11:59 30.39561 -45.79692 35271 ft 499 kts 48°
2026-04-20 12:00 30.44161 -45.73684 35281 ft 499 kts 48°
2026-04-20 12:00 30.48782 -45.67640 35278 ft 499 kts 48°
2026-04-20 12:01 30.53363 -45.61639 35277 ft 499 kts 48°
2026-04-20 12:01 30.57954 -45.55614 35277 ft 499 kts 48°
2026-04-20 12:02 30.62542 -45.49586 35280 ft 498 kts 48°
2026-04-20 12:02 30.67144 -45.43528 35280 ft 498 kts 48°
2026-04-20 12:03 30.71708 -45.37512 35284 ft 498 kts 48°
2026-04-20 12:03 30.76304 -45.31444 35279 ft 498 kts 48°
2026-04-20 12:04 30.80872 -45.25403 35286 ft 498 kts 48°
2026-04-20 12:04 30.85425 -45.19373 35287 ft 497 kts 48°
2026-04-20 12:05 30.89998 -45.13306 35286 ft 497 kts 48°
2026-04-20 12:05 30.94546 -45.07261 35292 ft 497 kts 48°
2026-04-20 12:06 30.99092 -45.01214 35293 ft 498 kts 48°
2026-04-20 12:06 31.03397 -44.94838 35297 ft 498 kts 53°
2026-04-20 12:07 31.07511 -44.88339 35297 ft 499 kts 53°
2026-04-20 12:07 31.11631 -44.81814 35295 ft 499 kts 53°
2026-04-20 12:08 31.15749 -44.75322 35293 ft 499 kts 53°
2026-04-20 12:08 31.19902 -44.68789 35301 ft 499 kts 53°
2026-04-20 12:09 31.23332 -44.63388 35300 ft 499 kts 53°
2026-04-20 12:09 31.28159 -44.55773 35301 ft 498 kts 53°
2026-04-20 12:10 31.32250 -44.49302 35306 ft 495 kts 53°
2026-04-20 12:10 31.35650 -44.43919 35309 ft 492 kts 53°
2026-04-20 12:11 31.39727 -44.37452 35301 ft 492 kts 53°
2026-04-20 12:11 31.43792 -44.30994 35306 ft 494 kts 53°
2026-04-20 12:12 31.47854 -44.24529 35306 ft 494 kts 54°
2026-04-20 12:12 31.51940 -44.18017 35305 ft 493 kts 54°
2026-04-20 12:13 31.55972 -44.11580 35306 ft 490 kts 54°
2026-04-20 12:13 31.59999 -44.05138 35313 ft 489 kts 54°
2026-04-20 12:14 31.64008 -43.98717 35325 ft 489 kts 54°
2026-04-20 12:14 31.68045 -43.92237 35315 ft 490 kts 54°
2026-04-20 12:15 31.72058 -43.85788 35319 ft 490 kts 54°
2026-04-20 12:15 31.76058 -43.79347 35326 ft 489 kts 54°
2026-04-20 12:16 31.80073 -43.72871 35318 ft 489 kts 54°
2026-04-20 12:16 31.84053 -43.66442 35318 ft 488 kts 54°
2026-04-20 12:17 31.88034 -43.60000 35326 ft 487 kts 54°
2026-04-20 12:17 31.92035 -43.53514 35327 ft 487 kts 54°
2026-04-20 12:18 31.96007 -43.47066 35329 ft 487 kts 54°
2026-04-20 12:18 31.99975 -43.40611 35329 ft 488 kts 54°
2026-04-20 12:19 32.03951 -43.34135 35330 ft 487 kts 54°
2026-04-20 12:19 32.07904 -43.27683 35328 ft 488 kts 54°
2026-04-20 12:20 32.11880 -43.21184 35327 ft 487 kts 54°
2026-04-20 12:20 32.15836 -43.14706 35334 ft 487 kts 54°
2026-04-20 12:21 32.19800 -43.08204 35333 ft 487 kts 54°
2026-04-20 12:21 32.23748 -43.01716 35334 ft 487 kts 54°
2026-04-20 12:22 32.27706 -42.95202 35332 ft 487 kts 54°
2026-04-20 12:22 32.31668 -42.88670 35336 ft 487 kts 54°
2026-04-20 12:23 32.35590 -42.82192 35335 ft 487 kts 54°
2026-04-20 12:23 32.39532 -42.75671 35332 ft 487 kts 54°
2026-04-20 12:24 32.43472 -42.69141 35335 ft 487 kts 54°
2026-04-20 12:24 32.47396 -42.62627 35335 ft 486 kts 53°
2026-04-20 12:25 32.51334 -42.56077 35336 ft 486 kts 54°
2026-04-20 12:25 32.55246 -42.49560 35336 ft 486 kts 54°
2026-04-20 12:26 32.59145 -42.43053 35341 ft 486 kts 54°
2026-04-20 12:26 32.63054 -42.36520 35347 ft 486 kts 53°
2026-04-20 12:27 32.66980 -42.29945 35342 ft 486 kts 53°
2026-04-20 12:27 32.70862 -42.23432 35347 ft 486 kts 53°
2026-04-20 12:28 32.74770 -42.16865 35346 ft 485 kts 52°
2026-04-20 12:28 32.78654 -42.10325 35347 ft 485 kts 53°
2026-04-20 12:29 32.82555 -42.03750 35348 ft 485 kts 54°
2026-04-20 12:29 32.86410 -41.97235 35353 ft 485 kts 52°
2026-04-20 12:30 32.90296 -41.90660 35350 ft 484 kts 53°
2026-04-20 12:30 32.94167 -41.84097 35337 ft 484 kts 52°
2026-04-20 12:31 32.98014 -41.77563 35354 ft 484 kts 53°
2026-04-20 12:31 33.01886 -41.70976 35362 ft 483 kts 52°
2026-04-20 12:32 33.05721 -41.64440 35345 ft 483 kts 52°
2026-04-20 12:32 33.09574 -41.57861 35361 ft 483 kts 53°
2026-04-20 12:33 33.13434 -41.51262 35355 ft 483 kts 53°
2026-04-20 12:33 33.17266 -41.44697 35357 ft 483 kts 52°
2026-04-20 12:34 33.21088 -41.38140 35356 ft 482 kts 53°
2026-04-20 12:34 33.24906 -41.31572 35356 ft 482 kts 53°
2026-04-20 12:35 33.28747 -41.24955 35355 ft 482 kts 52°
2026-04-20 12:35 33.32543 -41.18404 35365 ft 481 kts 52°
2026-04-20 12:36 33.36338 -41.11846 35357 ft 480 kts 53°
2026-04-20 12:36 33.40143 -41.05256 35361 ft 479 kts 53°
2026-04-20 12:37 33.43918 -40.98706 35364 ft 479 kts 53°
2026-04-20 12:37 33.47689 -40.92152 35367 ft 479 kts 53°
2026-04-20 12:38 33.51476 -40.85565 35364 ft 478 kts 53°
2026-04-20 12:38 33.55245 -40.78994 35361 ft 477 kts 54°
2026-04-20 12:39 33.60847 -40.69195 35376 ft 477 kts 54°
2026-04-20 12:40 33.64592 -40.62637 35371 ft 476 kts 54°
2026-04-20 12:40 33.68323 -40.56083 35364 ft 475 kts 54°
2026-04-20 12:41 33.72040 -40.49548 35368 ft 474 kts 54°
2026-04-20 12:41 33.75742 -40.43029 35374 ft 472 kts 55°
2026-04-20 12:42 33.79443 -40.36497 35369 ft 471 kts 55°
2026-04-20 12:42 33.83110 -40.30014 35369 ft 470 kts 55°
2026-04-20 12:43 33.86797 -40.23487 35380 ft 469 kts 56°
2026-04-20 12:43 33.90455 -40.16996 35369 ft 468 kts 56°
2026-04-20 12:44 33.94100 -40.10515 35373 ft 467 kts 56°
2026-04-20 12:44 33.97717 -40.04075 35374 ft 467 kts 56°
2026-04-20 12:45 34.01519 -39.97712 35379 ft 466 kts 50°
2026-04-20 12:45 34.05719 -39.91755 35382 ft 467 kts 50°
2026-04-20 12:46 34.09941 -39.85811 35379 ft 467 kts 50°
2026-04-20 12:46 34.14137 -39.79853 35381 ft 467 kts 50°
2026-04-20 12:47 34.18339 -39.73848 35382 ft 466 kts 50°
2026-04-20 12:47 34.22491 -39.67894 35380 ft 464 kts 50°
2026-04-20 12:48 34.26638 -39.61939 35384 ft 464 kts 50°
2026-04-20 12:48 34.30795 -39.55961 35385 ft 464 kts 50°
2026-04-20 12:49 34.34940 -39.49990 35389 ft 464 kts 50°
2026-04-20 12:49 34.39106 -39.43979 35388 ft 463 kts 50°
2026-04-20 12:50 34.43226 -39.38022 35380 ft 463 kts 50°
2026-04-20 12:50 34.47357 -39.32041 35387 ft 464 kts 49°
2026-04-20 12:51 34.51518 -39.26006 35384 ft 465 kts 49°
2026-04-20 12:51 34.55663 -39.19985 35389 ft 466 kts 49°
2026-04-20 12:52 34.59828 -39.13924 35386 ft 467 kts 49°
2026-04-20 12:52 34.63976 -39.07876 35388 ft 466 kts 49°
2026-04-20 12:53 34.68103 -39.01848 35384 ft 466 kts 49°
2026-04-20 12:53 34.72258 -38.95771 35387 ft 465 kts 49°
2026-04-20 12:54 34.76379 -38.89732 35389 ft 465 kts 49°
2026-04-20 12:54 34.80489 -38.83700 35386 ft 465 kts 49°
2026-04-20 12:55 34.84638 -38.77598 35388 ft 465 kts 49°
2026-04-20 12:55 34.88747 -38.71547 35391 ft 466 kts 49°
2026-04-20 12:56 34.92889 -38.65435 35392 ft 466 kts 49°
2026-04-20 12:56 34.97011 -38.59341 35384 ft 467 kts 49°
2026-04-20 12:57 35.01135 -38.53234 35388 ft 467 kts 49°
2026-04-20 12:57 35.04590 -38.48111 35388 ft 468 kts 49°
2026-04-20 12:58 35.08715 -38.41983 35397 ft 468 kts 49°
2026-04-20 12:58 35.13525 -38.34825 35386 ft 468 kts 49°
2026-04-20 12:59 35.17640 -38.28689 35389 ft 468 kts 49°
2026-04-20 12:59 35.21079 -38.23553 35388 ft 467 kts 49°
2026-04-20 13:00 35.25185 -38.17409 35401 ft 467 kts 49°
2026-04-20 13:00 35.29306 -38.11233 35393 ft 467 kts 49°
2026-04-20 13:01 35.33404 -38.05081 35398 ft 467 kts 49°
2026-04-20 13:01 35.37509 -37.98906 35387 ft 467 kts 49°
2026-04-20 13:02 35.41596 -37.92749 35402 ft 466 kts 49°
2026-04-20 13:02 35.45667 -37.86605 35406 ft 466 kts 49°
2026-04-20 13:02 35.47717 -37.83506 35621 ft 467 kts 49°
2026-04-20 13:03 35.49766 -37.80407 36034 ft 464 kts 49°
2026-04-20 13:03 35.51799 -37.77328 36463 ft 461 kts 49°
2026-04-20 13:03 35.53790 -37.74309 36866 ft 458 kts 49°
2026-04-20 13:03 35.55795 -37.71267 37251 ft 456 kts 49°
2026-04-20 13:04 35.57800 -37.68224 37356 ft 458 kts 49°
2026-04-20 13:04 35.61800 -37.62146 37387 ft 457 kts 49°
2026-04-20 13:05 35.65785 -37.56076 37395 ft 453 kts 49°
2026-04-20 13:05 35.69719 -37.50075 37392 ft 452 kts 49°
2026-04-20 13:06 35.73657 -37.44058 37406 ft 451 kts 49°
2026-04-20 13:06 35.77583 -37.38049 37404 ft 452 kts 48°
2026-04-20 13:07 35.81539 -37.31984 37403 ft 453 kts 49°
2026-04-20 13:07 35.85475 -37.25937 37399 ft 454 kts 49°
2026-04-20 13:08 35.89445 -37.19828 37389 ft 455 kts 48°
2026-04-20 13:08 35.93394 -37.13740 37409 ft 456 kts 48°
2026-04-20 13:09 35.97363 -37.07610 37407 ft 457 kts 49°
2026-04-20 13:09 36.01317 -37.01492 37398 ft 457 kts 49°
2026-04-20 13:10 36.05286 -36.95340 37390 ft 457 kts 48°
2026-04-20 13:10 36.09228 -36.89218 37393 ft 455 kts 49°
2026-04-20 13:11 36.13181 -36.83069 37399 ft 455 kts 49°
2026-04-20 13:11 36.17106 -36.76953 37398 ft 454 kts 49°
2026-04-20 13:12 36.21014 -36.70852 37402 ft 453 kts 48°
2026-04-20 13:12 36.24934 -36.64721 37394 ft 452 kts 48°
2026-04-20 13:13 36.28831 -36.58616 37393 ft 452 kts 48°
2026-04-20 13:13 36.32737 -36.52486 37396 ft 451 kts 48°
2026-04-20 13:14 36.36609 -36.46399 37396 ft 451 kts 48°
2026-04-20 13:14 36.40480 -36.40300 37397 ft 451 kts 48°
2026-04-20 13:15 36.44355 -36.34187 37397 ft 451 kts 48°
2026-04-20 13:15 36.48224 -36.28070 37400 ft 451 kts 49°
2026-04-20 13:16 36.52119 -36.21900 37404 ft 452 kts 48°
2026-04-20 13:16 36.55979 -36.15776 37395 ft 452 kts 48°
2026-04-20 13:17 36.59849 -36.09625 37395 ft 452 kts 48°
2026-04-20 13:17 36.63706 -36.03482 37393 ft 452 kts 48°
2026-04-20 13:18 36.67580 -35.97301 37405 ft 452 kts 48°
2026-04-20 13:18 36.71455 -35.91109 37393 ft 451 kts 48°
2026-04-20 13:19 36.75301 -35.84950 37390 ft 451 kts 48°
2026-04-20 13:19 36.79135 -35.78800 37391 ft 450 kts 48°
2026-04-20 13:20 36.82985 -35.72614 37397 ft 450 kts 48°
2026-04-20 13:20 36.86811 -35.66454 37386 ft 450 kts 48°
2026-04-20 13:21 36.90648 -35.60265 37388 ft 449 kts 48°
2026-04-20 13:21 36.94454 -35.54115 37389 ft 449 kts 48°
2026-04-20 13:22 36.98272 -35.47934 37402 ft 449 kts 47°
2026-04-20 13:22 37.02100 -35.41725 37387 ft 449 kts 47°
2026-04-20 13:23 37.05899 -35.35552 37382 ft 449 kts 47°
2026-04-20 13:23 37.09692 -35.29378 37382 ft 448 kts 47°
2026-04-20 13:24 37.13513 -35.23146 37399 ft 448 kts 47°
2026-04-20 13:24 37.17305 -35.16950 37375 ft 448 kts 47°
2026-04-20 13:25 37.21096 -35.10745 37386 ft 448 kts 47°
2026-04-20 13:25 37.24856 -35.04578 37382 ft 448 kts 47°
2026-04-20 13:26 37.28652 -34.98340 37398 ft 447 kts 47°
2026-04-20 13:26 37.32423 -34.92133 37379 ft 447 kts 47°
2026-04-20 13:27 37.36181 -34.85935 37378 ft 447 kts 47°
2026-04-20 13:27 37.39952 -34.79705 37378 ft 446 kts 47°
2026-04-20 13:28 37.43693 -34.73513 37381 ft 446 kts 47°
2026-04-20 13:28 37.47463 -34.67260 37382 ft 446 kts 47°
2026-04-20 13:29 37.51197 -34.61056 37374 ft 446 kts 47°
2026-04-20 13:29 37.54932 -34.54838 37379 ft 446 kts 47°
2026-04-20 13:30 37.58676 -34.48594 37377 ft 445 kts 47°
2026-04-20 13:30 37.62403 -34.42366 37373 ft 445 kts 46°
2026-04-20 13:31 37.66133 -34.36122 37371 ft 445 kts 47°
2026-04-20 13:31 37.69841 -34.29901 37362 ft 444 kts 47°
2026-04-20 13:32 37.73563 -34.23648 37362 ft 444 kts 47°
2026-04-20 13:32 37.77261 -34.17422 37376 ft 444 kts 46°
2026-04-20 13:33 37.80986 -34.11139 37368 ft 444 kts 46°
2026-04-20 13:33 37.84678 -34.04900 37362 ft 444 kts 46°
2026-04-20 13:34 37.88390 -33.98614 37364 ft 444 kts 46°
2026-04-20 13:34 37.92079 -33.92356 37362 ft 444 kts 46°
2026-04-20 13:35 37.95764 -33.86092 37353 ft 444 kts 47°
2026-04-20 13:35 37.99464 -33.79792 37358 ft 444 kts 47°
2026-04-20 13:36 38.03153 -33.73497 37358 ft 445 kts 46°
2026-04-20 13:36 38.06822 -33.67226 37370 ft 445 kts 46°
2026-04-20 13:37 38.10529 -33.60877 37357 ft 446 kts 46°
2026-04-20 13:37 38.14214 -33.54552 37349 ft 446 kts 46°
2026-04-20 13:38 38.17891 -33.48231 37353 ft 446 kts 46°
2026-04-20 13:38 38.21560 -33.41909 37378 ft 446 kts 46°
2026-04-20 13:39 38.25257 -33.35529 37354 ft 446 kts 46°
2026-04-20 13:39 38.28919 -33.29196 37356 ft 445 kts 46°
2026-04-20 13:40 38.32578 -33.22854 37348 ft 445 kts 46°
2026-04-20 13:40 38.36253 -33.16473 37332 ft 445 kts 46°
2026-04-20 13:41 38.39903 -33.10124 37342 ft 445 kts 46°
2026-04-20 13:41 38.43540 -33.03785 37342 ft 445 kts 46°
2026-04-20 13:42 38.47198 -32.97397 37344 ft 445 kts 46°
2026-04-20 13:42 38.52657 -32.87841 37365 ft 445 kts 45°
2026-04-20 13:43 38.56305 -32.81440 37334 ft 445 kts 45°
2026-04-20 13:43 38.59940 -32.75048 37327 ft 445 kts 45°
2026-04-20 13:44 38.63557 -32.68675 37323 ft 444 kts 46°
2026-04-20 13:44 38.66584 -32.63331 37323 ft 444 kts 46°
2026-04-20 13:45 38.70814 -32.55851 37325 ft 445 kts 45°
2026-04-20 13:45 38.74428 -32.49446 37317 ft 445 kts 45°
2026-04-20 13:46 38.77445 -32.44089 37316 ft 444 kts 45°
2026-04-20 13:46 38.81068 -32.37645 37312 ft 444 kts 45°
2026-04-20 13:47 38.84664 -32.31236 37320 ft 445 kts 45°
2026-04-20 13:47 38.88292 -32.24757 37331 ft 445 kts 45°
2026-04-20 13:48 38.91892 -32.18314 37307 ft 445 kts 45°
2026-04-20 13:48 38.95480 -32.11879 37303 ft 444 kts 45°
2026-04-20 13:49 38.99065 -32.05439 37317 ft 444 kts 45°
2026-04-20 13:49 39.02660 -31.98967 37314 ft 443 kts 45°
2026-04-20 13:50 39.06236 -31.92516 37297 ft 443 kts 45°
2026-04-20 13:50 39.09818 -31.86042 37294 ft 443 kts 45°
2026-04-20 13:51 39.13368 -31.79612 37324 ft 443 kts 44°
2026-04-20 13:51 39.16956 -31.73102 37297 ft 444 kts 45°
2026-04-20 13:52 39.20519 -31.66623 37291 ft 444 kts 45°
2026-04-20 13:52 39.24074 -31.60145 37281 ft 444 kts 45°
2026-04-20 13:53 39.27663 -31.53591 37279 ft 445 kts 45°
2026-04-20 13:53 39.31221 -31.47082 37294 ft 445 kts 44°
2026-04-20 13:54 39.34777 -31.40562 37283 ft 446 kts 45°
2026-04-20 13:54 39.38357 -31.33983 37267 ft 446 kts 45°
2026-04-20 13:55 39.41935 -31.27395 37268 ft 446 kts 45°
2026-04-20 13:55 39.45486 -31.20804 37245 ft 449 kts 46°
2026-04-20 13:56 39.48743 -31.13888 37278 ft 450 kts 49°
2026-04-20 13:56 39.51910 -31.06896 37272 ft 452 kts 49°
2026-04-20 13:57 39.55092 -30.99879 37269 ft 452 kts 49°
2026-04-20 13:57 39.58290 -30.92858 37265 ft 453 kts 49°
2026-04-20 13:58 39.61492 -30.85829 37267 ft 454 kts 49°
2026-04-20 13:58 39.64710 -30.78750 37257 ft 454 kts 49°
2026-04-20 13:59 39.67907 -30.71696 37248 ft 454 kts 49°
2026-04-20 13:59 39.71094 -30.64651 37265 ft 454 kts 49°
2026-04-20 14:00 39.74288 -30.57574 37255 ft 454 kts 49°
2026-04-20 14:00 39.77494 -30.50453 37252 ft 454 kts 49°
2026-04-20 14:01 39.80674 -30.43374 37238 ft 454 kts 49°
2026-04-20 14:01 39.83849 -30.36290 37265 ft 455 kts 49°
2026-04-20 14:02 39.87027 -30.29187 37249 ft 456 kts 49°
2026-04-20 14:02 39.90221 -30.22027 37235 ft 456 kts 49°
2026-04-20 14:03 39.93397 -30.14889 37227 ft 456 kts 49°
2026-04-20 14:03 39.96566 -30.07757 37230 ft 457 kts 48°
2026-04-20 14:04 39.99751 -30.00616 37228 ft 454 kts 46°
2026-04-20 14:04 40.03391 -29.94057 37228 ft 444 kts 41°
2026-04-20 14:05 40.07173 -29.87678 37214 ft 444 kts 41°
2026-04-20 14:05 40.10943 -29.81285 37271 ft 445 kts 41°
2026-04-20 14:06 40.14724 -29.74821 37216 ft 446 kts 41°
2026-04-20 14:06 40.18487 -29.68351 37205 ft 446 kts 41°
2026-04-20 14:07 40.22230 -29.61896 37205 ft 446 kts 41°
2026-04-20 14:07 40.25972 -29.55433 37220 ft 446 kts 41°
2026-04-20 14:08 40.29698 -29.48986 37211 ft 447 kts 41°
2026-04-20 14:08 40.33456 -29.42472 37205 ft 447 kts 41°
2026-04-20 14:09 40.37185 -29.35992 37195 ft 446 kts 41°
2026-04-20 14:09 40.40933 -29.29465 37191 ft 446 kts 41°
2026-04-20 14:10 40.44647 -29.22984 37237 ft 447 kts 41°
2026-04-20 14:10 40.48408 -29.16413 37196 ft 448 kts 41°
2026-04-20 14:11 40.52131 -29.09890 37185 ft 448 kts 41°
2026-04-20 14:11 40.55867 -29.03330 37185 ft 449 kts 41°
2026-04-20 14:12 40.59613 -28.96737 37177 ft 449 kts 41°
2026-04-20 14:12 40.63362 -28.90130 37184 ft 451 kts 42°
2026-04-20 14:13 40.67106 -28.83516 37183 ft 452 kts 42°
2026-04-20 14:13 40.70855 -28.76876 37167 ft 453 kts 42°
2026-04-20 14:14 40.74614 -28.70203 37168 ft 453 kts 42°
2026-04-20 14:14 40.78366 -28.63531 37203 ft 455 kts 42°
2026-04-20 14:15 40.82153 -28.56785 37179 ft 457 kts 42°
2026-04-20 14:15 40.85927 -28.50044 37167 ft 458 kts 43°
2026-04-20 14:16 40.89697 -28.43294 37150 ft 458 kts 43°
2026-04-20 14:16 40.93491 -28.36485 37147 ft 458 kts 43°
2026-04-20 14:17 40.97263 -28.29704 37164 ft 458 kts 43°
2026-04-20 14:17 41.01026 -28.22923 37158 ft 458 kts 43°
2026-04-20 14:18 41.04791 -28.16121 37147 ft 458 kts 43°
2026-04-20 14:18 41.08573 -28.09275 37148 ft 457 kts 43°
2026-04-20 14:19 41.12330 -28.02465 37155 ft 460 kts 43°
2026-04-20 14:19 41.16093 -27.95628 37149 ft 461 kts 43°
2026-04-20 14:20 41.19866 -27.88753 37142 ft 462 kts 43°
2026-04-20 14:20 41.23669 -27.81809 37142 ft 463 kts 43°
2026-04-20 14:21 41.27453 -27.74882 37164 ft 465 kts 43°
2026-04-20 14:21 41.31252 -27.67915 37140 ft 466 kts 44°
2026-04-20 14:22 41.35052 -27.60930 37134 ft 467 kts 44°
2026-04-20 14:22 41.38849 -27.53930 37131 ft 468 kts 44°
2026-04-20 14:23 41.42667 -27.46877 37181 ft 468 kts 44°
2026-04-20 14:23 41.46472 -27.39836 37128 ft 470 kts 44°
2026-04-20 14:24 41.50302 -27.32728 37123 ft 470 kts 44°
2026-04-20 14:24 41.54104 -27.25655 37122 ft 470 kts 44°
2026-04-20 14:25 41.57898 -27.18583 37118 ft 470 kts 44°
2026-04-20 14:25 41.61698 -27.11484 37127 ft 472 kts 45°
2026-04-20 14:26 41.65513 -27.04341 37122 ft 472 kts 45°
2026-04-20 14:26 41.69347 -26.97145 37113 ft 473 kts 45°
2026-04-20 14:27 41.73154 -26.89980 37130 ft 474 kts 45°
2026-04-20 14:27 41.76968 -26.82788 37118 ft 476 kts 45°
2026-04-20 14:28 41.80790 -26.75563 37108 ft 477 kts 46°
2026-04-20 14:28 41.84636 -26.68273 37105 ft 477 kts 46°
2026-04-20 14:29 41.88453 -26.61022 37117 ft 478 kts 46°
2026-04-20 14:29 41.92309 -26.53679 37107 ft 479 kts 46°
2026-04-20 14:30 41.96144 -26.46360 37098 ft 480 kts 46°
2026-04-20 14:30 41.99969 -26.39040 37100 ft 481 kts 46°
2026-04-20 14:31 42.03829 -26.31639 37097 ft 482 kts 47°
2026-04-20 14:31 42.07663 -26.24267 37094 ft 483 kts 47°
2026-04-20 14:32 42.11532 -26.16809 37100 ft 484 kts 47°
2026-04-20 14:32 42.14722 -26.10644 37115 ft 484 kts 48°
2026-04-20 14:33 42.19216 -26.01940 37090 ft 484 kts 48°
2026-04-20 14:33 42.23048 -25.94499 37087 ft 484 kts 48°
2026-04-20 14:34 42.26258 -25.88253 37085 ft 484 kts 48°
2026-04-20 14:34 42.30716 -25.79557 37074 ft 485 kts 49°
2026-04-20 14:35 42.33934 -25.73262 37078 ft 486 kts 49°
2026-04-20 14:35 42.37760 -25.65762 37070 ft 486 kts 49°
2026-04-20 14:36 42.41603 -25.58209 37087 ft 487 kts 49°
2026-04-20 14:36 42.45434 -25.50660 37101 ft 487 kts 49°
2026-04-20 14:37 42.49250 -25.43122 37074 ft 487 kts 49°
2026-04-20 14:37 42.53087 -25.35524 37084 ft 486 kts 49°
2026-04-20 14:38 42.56898 -25.27960 37081 ft 487 kts 50°
2026-04-20 14:38 42.60703 -25.20388 37075 ft 487 kts 50°
2026-04-20 14:39 42.64508 -25.12793 37071 ft 487 kts 50°
2026-04-20 14:39 42.68328 -25.05154 37082 ft 488 kts 51°
2026-04-20 14:40 42.72124 -24.97541 37072 ft 489 kts 51°
2026-04-20 14:40 42.75936 -24.89877 37068 ft 489 kts 51°
2026-04-20 14:41 42.79755 -24.82178 37066 ft 490 kts 51°
2026-04-20 14:41 42.83555 -24.74498 37071 ft 491 kts 52°
2026-04-20 14:42 42.87378 -24.66752 37065 ft 491 kts 52°
2026-04-20 14:42 42.91175 -24.59036 37064 ft 491 kts 52°
2026-04-20 14:43 42.94995 -24.51256 37055 ft 492 kts 53°
2026-04-20 14:43 42.98796 -24.43494 37057 ft 493 kts 53°
2026-04-20 14:44 43.02596 -24.35714 37056 ft 494 kts 53°
2026-04-20 14:44 43.06409 -24.27886 37064 ft 495 kts 53°
2026-04-20 14:45 43.10219 -24.20044 37055 ft 497 kts 54°
2026-04-20 14:45 43.14059 -24.12119 37050 ft 498 kts 54°
2026-04-20 14:46 43.17863 -24.04246 37061 ft 498 kts 54°
2026-04-20 14:46 43.21677 -23.96330 37053 ft 499 kts 54°
2026-04-20 14:47 43.25513 -23.88349 37047 ft 499 kts 54°
2026-04-20 14:48 43.31227 -23.76422 37040 ft 499 kts 54°
2026-04-20 14:48 43.35022 -23.68473 37027 ft 499 kts 55°
2026-04-20 14:49 43.38826 -23.60483 37042 ft 500 kts 55°
2026-04-20 14:49 43.42631 -23.52470 37038 ft 500 kts 56°
2026-04-20 14:50 43.46425 -23.44456 37037 ft 501 kts 56°
2026-04-20 14:50 43.50246 -23.36366 37034 ft 502 kts 56°
2026-04-20 14:51 43.54038 -23.28312 37040 ft 502 kts 56°
2026-04-20 14:51 43.57838 -23.20222 37029 ft 502 kts 56°
2026-04-20 14:52 43.61614 -23.12159 37021 ft 502 kts 57°
2026-04-20 14:52 43.65422 -23.04007 37025 ft 502 kts 57°
2026-04-20 14:53 43.69176 -22.95946 37026 ft 502 kts 57°
2026-04-20 14:53 43.72967 -22.87783 37021 ft 502 kts 57°
2026-04-20 14:54 43.76739 -22.79641 37019 ft 502 kts 57°
2026-04-20 14:54 43.80487 -22.71526 37022 ft 502 kts 57°
2026-04-20 14:55 43.84224 -22.63411 37024 ft 502 kts 57°
2026-04-20 14:55 43.87995 -22.55203 37012 ft 502 kts 58°
2026-04-20 14:56 43.91731 -22.47045 37029 ft 502 kts 58°
2026-04-20 14:56 43.95463 -22.38873 37018 ft 502 kts 58°
2026-04-20 14:57 43.99201 -22.30666 37008 ft 502 kts 58°
2026-04-20 14:57 44.02936 -22.22443 37011 ft 502 kts 59°
2026-04-20 14:58 44.06643 -22.14257 37013 ft 502 kts 59°
2026-04-20 14:58 44.10360 -22.06023 37011 ft 502 kts 59°
2026-04-20 14:59 44.14053 -21.97822 37002 ft 502 kts 59°
2026-04-20 14:59 44.17773 -21.89539 37008 ft 503 kts 59°
2026-04-20 15:00 44.21465 -21.81291 37006 ft 503 kts 59°
2026-04-20 15:00 44.25161 -21.73012 37005 ft 504 kts 59°
2026-04-20 15:01 44.28850 -21.64727 37009 ft 504 kts 60°
2026-04-20 15:01 44.32564 -21.56358 37001 ft 505 kts 60°
2026-04-20 15:02 44.36243 -21.48046 36995 ft 505 kts 60°
2026-04-20 15:02 44.39952 -21.39643 36981 ft 505 kts 61°
2026-04-20 15:03 44.43604 -21.31342 36990 ft 505 kts 61°
2026-04-20 15:03 44.47295 -21.22929 36994 ft 505 kts 61°
2026-04-20 15:04 44.50956 -21.14560 36989 ft 505 kts 61°
2026-04-20 15:04 44.54611 -21.06181 36979 ft 505 kts 62°
2026-04-20 15:05 44.58258 -20.97795 36979 ft 505 kts 62°
2026-04-20 15:05 44.61931 -20.89323 36974 ft 506 kts 62°
2026-04-20 15:06 44.65575 -20.80894 36963 ft 506 kts 63°
2026-04-20 15:06 44.69208 -20.72469 36985 ft 506 kts 63°
2026-04-20 15:07 44.72848 -20.63999 36983 ft 505 kts 63°
2026-04-20 15:07 44.76464 -20.55560 36976 ft 505 kts 63°
2026-04-20 15:08 44.80098 -20.47053 36963 ft 504 kts 63°
2026-04-20 15:08 44.83703 -20.38589 36972 ft 504 kts 63°
2026-04-20 15:09 44.87301 -20.30114 36972 ft 505 kts 64°
2026-04-20 15:09 44.90893 -20.21629 36944 ft 506 kts 64°
2026-04-20 15:10 44.94504 -20.13075 36956 ft 505 kts 64°
2026-04-20 15:10 44.98082 -20.04572 36963 ft 505 kts 65°
2026-04-20 15:11 45.01079 -19.95657 36964 ft 497 kts 77°
2026-04-20 15:11 45.03147 -19.86394 36969 ft 495 kts 78°
2026-04-20 15:12 45.05166 -19.77094 36966 ft 496 kts 78°
2026-04-20 15:12 45.07222 -19.67738 36960 ft 496 kts 78°
2026-04-20 15:13 45.09275 -19.58465 36958 ft 496 kts 78°
2026-04-20 15:13 45.11341 -19.49126 36965 ft 495 kts 78°
2026-04-20 15:14 45.13385 -19.39843 36952 ft 494 kts 78°
2026-04-20 15:14 45.15417 -19.30560 36956 ft 493 kts 78°
2026-04-20 15:15 45.17432 -19.21315 36954 ft 493 kts 79°
2026-04-20 15:15 45.19450 -19.12014 36953 ft 491 kts 79°
2026-04-20 15:16 45.21442 -19.02789 36948 ft 490 kts 79°
2026-04-20 15:16 45.23425 -18.93566 36947 ft 490 kts 79°
2026-04-20 15:17 45.25413 -18.84280 36950 ft 490 kts 79°
2026-04-20 15:17 45.27378 -18.75060 36944 ft 489 kts 79°
2026-04-20 15:18 45.29341 -18.65810 36947 ft 489 kts 79°
2026-04-20 15:18 45.31302 -18.56525 36945 ft 489 kts 79°
2026-04-20 15:19 45.33240 -18.47311 36898 ft 489 kts 79°
2026-04-20 15:19 45.35183 -18.38029 36932 ft 489 kts 79°
2026-04-20 15:20 45.37110 -18.28775 36937 ft 489 kts 79°
2026-04-20 15:20 45.39036 -18.19489 36933 ft 490 kts 79°
2026-04-20 15:21 45.40951 -18.10213 36894 ft 491 kts 79°
2026-04-20 15:21 45.42871 -18.00875 36918 ft 490 kts 79°
2026-04-20 15:22 45.44456 -17.93134 36933 ft 490 kts 79°
2026-04-20 15:22 45.46364 -17.83767 36926 ft 491 kts 79°
2026-04-20 15:23 45.48250 -17.74470 36901 ft 490 kts 79°
2026-04-20 15:23 45.50127 -17.65175 36914 ft 488 kts 80°
2026-04-20 15:24 45.52001 -17.55850 36921 ft 487 kts 80°
2026-04-20 15:24 45.53849 -17.46610 36920 ft 486 kts 80°
2026-04-20 15:25 45.55686 -17.37378 36894 ft 485 kts 80°
2026-04-20 15:25 45.57523 -17.28110 36916 ft 484 kts 80°
2026-04-20 15:26 45.59336 -17.18909 36920 ft 484 kts 80°
2026-04-20 15:26 45.61160 -17.09614 36920 ft 484 kts 80°
2026-04-20 15:27 45.62965 -17.00369 36900 ft 484 kts 80°
2026-04-20 15:27 45.64759 -16.91144 36912 ft 483 kts 80°
2026-04-20 15:28 45.66552 -16.81875 36915 ft 483 kts 80°
2026-04-20 15:28 45.68330 -16.72639 36915 ft 483 kts 80°
2026-04-20 15:29 45.70099 -16.63406 36898 ft 482 kts 80°
2026-04-20 15:29 45.71869 -16.54128 36909 ft 481 kts 80°
2026-04-20 15:30 45.73619 -16.44901 36905 ft 481 kts 80°
2026-04-20 15:30 45.75363 -16.35663 36914 ft 481 kts 80°
2026-04-20 15:31 45.77106 -16.26384 36911 ft 481 kts 80°
2026-04-20 15:31 45.78835 -16.17139 36909 ft 481 kts 80°
2026-04-20 15:32 45.80556 -16.07887 36906 ft 481 kts 80°
2026-04-20 15:32 45.82280 -15.98577 36903 ft 482 kts 81°
2026-04-20 15:33 45.83984 -15.89323 36896 ft 481 kts 80°
2026-04-20 15:33 45.85685 -15.80044 36898 ft 481 kts 80°
2026-04-20 15:34 45.87377 -15.70761 36903 ft 482 kts 80°
2026-04-20 15:34 45.89065 -15.61460 36891 ft 483 kts 80°
2026-04-20 15:35 45.90747 -15.52142 36885 ft 482 kts 80°
2026-04-20 15:35 45.92425 -15.42798 36891 ft 481 kts 80°
2026-04-20 15:36 45.94084 -15.33518 36897 ft 480 kts 80°
2026-04-20 15:36 45.95737 -15.24218 36900 ft 480 kts 80°
2026-04-20 15:37 45.97376 -15.14945 36889 ft 479 kts 80°
2026-04-20 15:37 45.99015 -15.05630 36899 ft 478 kts 80°
2026-04-20 15:38 46.00652 -14.96386 36901 ft 479 kts 79°
2026-04-20 15:38 46.02399 -14.87156 36909 ft 479 kts 78°
2026-04-20 15:39 46.04173 -14.77900 36891 ft 479 kts 79°
2026-04-20 15:39 46.05921 -14.68674 36909 ft 480 kts 79°
2026-04-20 15:40 46.07667 -14.59349 36914 ft 482 kts 79°
2026-04-20 15:40 46.09393 -14.50064 36914 ft 483 kts 79°
2026-04-20 15:41 46.11133 -14.40658 36900 ft 484 kts 79°
2026-04-20 15:41 46.12859 -14.31287 36921 ft 485 kts 79°
2026-04-20 15:42 46.14576 -14.21917 36928 ft 486 kts 79°
2026-04-20 15:42 46.16301 -14.12458 36924 ft 486 kts 79°
2026-04-20 15:43 46.18004 -14.03070 36910 ft 485 kts 79°
2026-04-20 15:43 46.19709 -13.93618 36917 ft 485 kts 79°
2026-04-20 15:44 46.21395 -13.84224 36919 ft 485 kts 79°
2026-04-20 15:44 46.23087 -13.74751 36921 ft 485 kts 79°
2026-04-20 15:45 46.24759 -13.65335 36902 ft 485 kts 79°
2026-04-20 15:45 46.26433 -13.55865 36919 ft 485 kts 79°
2026-04-20 15:46 46.28089 -13.46444 36927 ft 486 kts 79°
2026-04-20 15:46 46.29743 -13.36983 36925 ft 486 kts 79°
2026-04-20 15:47 46.31402 -13.27443 36913 ft 487 kts 79°
2026-04-20 15:47 46.33046 -13.17940 36925 ft 488 kts 79°
2026-04-20 15:48 46.34678 -13.08454 36928 ft 488 kts 79°
2026-04-20 15:48 46.36306 -12.98941 36929 ft 488 kts 79°
2026-04-20 15:49 46.37933 -12.89378 36921 ft 488 kts 79°
2026-04-20 15:49 46.39543 -12.79866 36931 ft 488 kts 79°
2026-04-20 15:50 46.41148 -12.70331 36932 ft 488 kts 79°
2026-04-20 15:50 46.42756 -12.60721 36936 ft 488 kts 79°
2026-04-20 15:51 46.44350 -12.51146 36944 ft 488 kts 79°
2026-04-20 15:51 46.45931 -12.41595 36933 ft 488 kts 79°
2026-04-20 15:52 46.47510 -12.32001 36944 ft 488 kts 79°
2026-04-20 15:52 46.49074 -12.22444 36937 ft 488 kts 79°
2026-04-20 15:53 46.51413 -12.08048 36942 ft 488 kts 79°
2026-04-20 15:53 46.52958 -11.98472 36947 ft 489 kts 79°
2026-04-20 15:54 46.54502 -11.88845 36943 ft 490 kts 80°
2026-04-20 15:54 46.56047 -11.79162 36941 ft 491 kts 80°
2026-04-20 15:55 46.57582 -11.69476 36939 ft 491 kts 79°
2026-04-20 15:55 46.59103 -11.59830 36951 ft 491 kts 79°
2026-04-20 15:56 46.60626 -11.50111 36947 ft 491 kts 80°
2026-04-20 15:56 46.62133 -11.40434 36944 ft 491 kts 80°
2026-04-20 15:57 46.63636 -11.30729 36941 ft 490 kts 79°
2026-04-20 15:57 46.65125 -11.21053 36951 ft 490 kts 79°
2026-04-20 15:58 46.66604 -11.11383 36951 ft 490 kts 80°
2026-04-20 15:58 46.68072 -11.01726 36953 ft 490 kts 80°
2026-04-20 15:59 46.69543 -10.91991 36946 ft 490 kts 79°
2026-04-20 15:59 46.70994 -10.82327 36959 ft 490 kts 79°
2026-04-20 16:00 46.72449 -10.72583 36961 ft 491 kts 79°
2026-04-20 16:00 46.73889 -10.62873 36963 ft 491 kts 79°
2026-04-20 16:01 46.75319 -10.53172 36961 ft 491 kts 79°
2026-04-20 16:01 46.76752 -10.43386 36965 ft 492 kts 79°
2026-04-20 16:02 46.78170 -10.33650 36964 ft 492 kts 79°
2026-04-20 16:02 46.79579 -10.23903 36968 ft 492 kts 79°
2026-04-20 16:03 46.80983 -10.14136 36961 ft 493 kts 79°
2026-04-20 16:03 46.82386 -10.04306 36966 ft 493 kts 79°
2026-04-20 16:04 46.83772 -9.94539 36967 ft 493 kts 79°
2026-04-20 16:04 46.85152 -9.84743 36967 ft 493 kts 79°
2026-04-20 16:05 46.86532 -9.74885 36970 ft 493 kts 79°
2026-04-20 16:05 46.87896 -9.65077 36976 ft 493 kts 80°
2026-04-20 16:06 46.89249 -9.55284 36975 ft 493 kts 80°
2026-04-20 16:06 46.90604 -9.45412 36978 ft 493 kts 80°
2026-04-20 16:07 46.91942 -9.35596 36972 ft 494 kts 80°
2026-04-20 16:07 46.93279 -9.25717 36989 ft 494 kts 80°
2026-04-20 16:08 46.94602 -9.15877 36992 ft 494 kts 80°
2026-04-20 16:08 46.95918 -9.06023 36993 ft 495 kts 80°
2026-04-20 16:09 46.97012 -8.97771 36990 ft 495 kts 80°
2026-04-20 16:09 46.98535 -8.86219 37003 ft 496 kts 80°
2026-04-20 16:10 46.99611 -8.77913 36998 ft 496 kts 82°
2026-04-20 16:10 47.00129 -8.67881 37007 ft 494 kts 91°
2026-04-20 16:11 47.00088 -8.57858 37003 ft 495 kts 92°
2026-04-20 16:11 47.00054 -8.47738 37005 ft 495 kts 91°
2026-04-20 16:12 47.00053 -8.37681 37006 ft 495 kts 91°
2026-04-20 16:12 47.00053 -8.27623 37002 ft 495 kts 91°
2026-04-20 16:13 47.00042 -8.17531 36997 ft 495 kts 91°
2026-04-20 16:13 47.00022 -8.07396 37013 ft 496 kts 92°
2026-04-20 16:14 47.00061 -7.97292 37010 ft 497 kts 89°
2026-04-20 16:14 47.00431 -7.87165 37021 ft 498 kts 88°
2026-04-20 16:15 47.00856 -7.77041 37015 ft 499 kts 88°
2026-04-20 16:15 47.01254 -7.66924 37021 ft 500 kts 88°
2026-04-20 16:16 47.01626 -7.56705 37020 ft 501 kts 88°
2026-04-20 16:16 47.01982 -7.46536 37026 ft 501 kts 88°
2026-04-20 16:17 47.02329 -7.36344 37021 ft 502 kts 88°
2026-04-20 16:17 47.02669 -7.26145 37031 ft 503 kts 88°
2026-04-20 16:18 47.03004 -7.15865 37032 ft 503 kts 88°
2026-04-20 16:18 47.03328 -7.05602 37035 ft 504 kts 88°
2026-04-20 16:19 47.03643 -6.95354 37028 ft 504 kts 88°
2026-04-20 16:19 47.03949 -6.85091 37039 ft 505 kts 88°
2026-04-20 16:20 47.04245 -6.74827 37040 ft 506 kts 88°
2026-04-20 16:20 47.04535 -6.64481 37042 ft 506 kts 88°
2026-04-20 16:21 47.04813 -6.54212 37043 ft 507 kts 88°
2026-04-20 16:21 47.05085 -6.43839 37045 ft 507 kts 88°
2026-04-20 16:22 47.05345 -6.33549 37044 ft 508 kts 88°
2026-04-20 16:22 47.05599 -6.23143 37049 ft 508 kts 89°
2026-04-20 16:23 47.05842 -6.12812 37048 ft 509 kts 88°
2026-04-20 16:23 47.06076 -6.02458 37048 ft 509 kts 88°
2026-04-20 16:24 47.06300 -5.92125 37046 ft 509 kts 89°
2026-04-20 16:24 47.06516 -5.81738 37047 ft 509 kts 89°
2026-04-20 16:25 47.06723 -5.71324 37051 ft 510 kts 88°
2026-04-20 16:25 47.06920 -5.60932 37053 ft 510 kts 89°
2026-04-20 16:26 47.07108 -5.50534 37052 ft 510 kts 89°
2026-04-20 16:26 47.07287 -5.40117 37052 ft 511 kts 89°
2026-04-20 16:27 47.07457 -5.29685 37054 ft 511 kts 89°
2026-04-20 16:27 47.07616 -5.19280 37051 ft 511 kts 89°
2026-04-20 16:28 47.07767 -5.08861 37055 ft 511 kts 89°
2026-04-20 16:28 47.07910 -4.98461 37054 ft 511 kts 88°
2026-04-20 16:29 47.08227 -4.88073 37059 ft 511 kts 86°
2026-04-20 16:29 47.08672 -4.77640 37053 ft 511 kts 86°
2026-04-20 16:30 47.09090 -4.67247 37054 ft 511 kts 86°
2026-04-20 16:30 47.09468 -4.56853 37055 ft 511 kts 86°
2026-04-20 16:31 47.09827 -4.46389 37054 ft 511 kts 86°
2026-04-20 16:31 47.10176 -4.35992 37054 ft 511 kts 86°
2026-04-20 16:32 47.10517 -4.25575 37052 ft 511 kts 86°
2026-04-20 16:32 47.10849 -4.15190 37052 ft 511 kts 87°
2026-04-20 16:33 47.11174 -4.04735 37048 ft 511 kts 87°
2026-04-20 16:33 47.11487 -3.94339 37053 ft 510 kts 87°
2026-04-20 16:34 47.11791 -3.83955 37051 ft 510 kts 87°
2026-04-20 16:34 47.12085 -3.73560 37052 ft 510 kts 87°
2026-04-20 16:35 47.12372 -3.63103 37053 ft 510 kts 87°
2026-04-20 16:35 47.12647 -3.52734 37051 ft 511 kts 87°
2026-04-20 16:36 47.12914 -3.42281 37052 ft 511 kts 87°
2026-04-20 16:36 47.13171 -3.31887 37047 ft 511 kts 87°
2026-04-20 16:37 47.13419 -3.21445 37050 ft 511 kts 87°
2026-04-20 16:37 47.13657 -3.11059 37050 ft 511 kts 87°
2026-04-20 16:38 47.13889 -3.00585 37049 ft 511 kts 87°
2026-04-20 16:38 47.14102 -2.90164 37049 ft 511 kts 88°
2026-04-20 16:39 47.14300 -2.79739 37045 ft 512 kts 87°
2026-04-20 16:39 47.14491 -2.69315 37044 ft 512 kts 88°
2026-04-20 16:40 47.14675 -2.58811 37044 ft 512 kts 88°
2026-04-20 16:40 47.14848 -2.48395 37045 ft 512 kts 88°
2026-04-20 16:41 47.15012 -2.37953 37045 ft 512 kts 88°
2026-04-20 16:41 47.15167 -2.27469 37045 ft 512 kts 88°
2026-04-20 16:42 47.15312 -2.17039 37049 ft 513 kts 88°
2026-04-20 16:42 47.15448 -2.06538 37043 ft 513 kts 88°
2026-04-20 16:43 47.15574 -1.96084 37044 ft 513 kts 88°
2026-04-20 16:43 47.15693 -1.85568 37045 ft 513 kts 88°
2026-04-20 16:44 47.15861 -1.75116 37047 ft 513 kts 87°
2026-04-20 16:44 47.16433 -1.64701 37040 ft 509 kts 74°
2026-04-20 16:45 47.19026 -1.55181 37049 ft 501 kts 55°
2026-04-20 16:45 47.23106 -1.46923 37051 ft 497 kts 49°
2026-04-20 16:46 47.27279 -1.38805 37046 ft 498 kts 49°
2026-04-20 16:46 47.31397 -1.30600 37049 ft 499 kts 50°
2026-04-20 16:47 47.35508 -1.22286 37053 ft 500 kts 50°
2026-04-20 16:47 47.39584 -1.14012 37065 ft 500 kts 50°
2026-04-20 16:48 47.43657 -1.05730 37039 ft 500 kts 50°
2026-04-20 16:48 47.47741 -0.97402 37043 ft 499 kts 50°
2026-04-20 16:49 47.51779 -0.89077 37040 ft 500 kts 53°
2026-04-20 16:49 47.55063 -0.80008 37064 ft 505 kts 65°
2026-04-20 16:50 47.57420 -0.70177 37066 ft 506 kts 68°
2026-04-20 16:50 47.59763 -0.60371 37089 ft 505 kts 67°
2026-04-20 16:51 47.62135 -0.50603 37073 ft 506 kts 68°
2026-04-20 16:51 47.64507 -0.40743 37077 ft 505 kts 68°
2026-04-20 16:52 47.66854 -0.30931 37076 ft 505 kts 68°
2026-04-20 16:52 47.69192 -0.21120 37074 ft 505 kts 68°
2026-04-20 16:53 47.71534 -0.11245 37073 ft 505 kts 68°
2026-04-20 16:53 47.73853 -0.01426 37078 ft 506 kts 68°
2026-04-20 16:54 47.76173 0.08440 37081 ft 506 kts 68°
2026-04-20 16:54 47.78490 0.18335 37077 ft 506 kts 68°
2026-04-20 16:55 47.80774 0.26281 37098 ft 496 kts 52°
2026-04-20 16:55 47.82991 0.30154 37101 ft 487 kts 36°
2026-04-20 16:55 47.86654 0.33898 37115 ft 480 kts 28°
2026-04-20 16:56 47.91308 0.38537 37109 ft 484 kts 30°
2026-04-20 16:56 47.96819 0.44327 37116 ft 488 kts 30°
2026-04-20 16:57 48.02374 0.50178 37118 ft 490 kts 30°
2026-04-20 16:57 48.07973 0.56077 37103 ft 491 kts 30°
2026-04-20 16:58 48.13537 0.61953 37096 ft 490 kts 30°
2026-04-20 16:58 48.19076 0.67820 37108 ft 488 kts 30°
2026-04-20 16:59 48.24625 0.73714 37105 ft 487 kts 30°
2026-04-20 16:59 48.30135 0.79580 37108 ft 485 kts 30°
2026-04-20 17:00 48.35320 0.86071 37114 ft 495 kts 49°
2026-04-20 17:00 48.37063 0.90597 37137 ft 501 kts 61°
2026-04-20 17:01 48.40079 1.00085 37126 ft 502 kts 59°
2026-04-20 17:01 48.43292 1.09382 37128 ft 503 kts 58°
2026-04-20 17:02 48.46516 1.18706 37118 ft 503 kts 59°
2026-04-20 17:02 48.49740 1.28119 37116 ft 504 kts 59°
2026-04-20 17:03 48.52944 1.37489 37124 ft 504 kts 59°
2026-04-20 17:03 48.56189 1.46762 37093 ft 487 kts 52°
2026-04-20 17:03 48.58313 1.50591 37121 ft 463 kts 36°
2026-04-20 17:04 48.60855 1.53326 37115 ft 447 kts 21°
2026-04-20 17:04 48.66461 1.57275 37127 ft 443 kts 20°
2026-04-20 17:05 48.71917 1.61258 37108 ft 428 kts 20°
2026-04-20 17:05 48.77275 1.65147 37126 ft 427 kts 18°
2026-04-20 17:06 48.82795 1.68451 37138 ft 425 kts 14°
2026-04-20 17:06 48.88327 1.71540 37134 ft 426 kts 15°
2026-04-20 17:07 48.93883 1.74777 37136 ft 426 kts 15°
2026-04-20 17:07 48.99397 1.78010 37141 ft 426 kts 15°
2026-04-20 17:08 49.04940 1.81250 37135 ft 425 kts 15°
2026-04-20 17:08 49.10456 1.84424 37147 ft 423 kts 14°
2026-04-20 17:09 49.15948 1.87491 37149 ft 421 kts 14°
2026-04-20 17:09 49.21433 1.90631 37149 ft 419 kts 14°
2026-04-20 17:10 49.26873 1.93786 37176 ft 418 kts 14°
2026-04-20 17:10 49.32327 1.96912 37180 ft 417 kts 14°
2026-04-20 17:11 49.37768 1.99975 37184 ft 417 kts 14°
2026-04-20 17:11 49.43230 2.03128 37187 ft 417 kts 14°
2026-04-20 17:12 49.48645 2.06307 37190 ft 418 kts 15°
2026-04-20 17:12 49.54074 2.09451 37193 ft 418 kts 14°
2026-04-20 17:13 49.59558 2.12556 37194 ft 418 kts 14°
2026-04-20 17:13 49.64994 2.15713 37185 ft 419 kts 14°
2026-04-20 17:14 49.70424 2.18918 37178 ft 419 kts 14°
2026-04-20 17:14 49.75882 2.22157 37175 ft 419 kts 15°
2026-04-20 17:15 49.81300 2.25373 37173 ft 418 kts 14°
2026-04-20 17:15 49.86722 2.28680 37192 ft 418 kts 15°
2026-04-20 17:16 49.92129 2.31863 37179 ft 416 kts 14°
2026-04-20 17:16 49.97522 2.35190 37195 ft 418 kts 16°
2026-04-20 17:17 50.02899 2.38579 37184 ft 418 kts 15°
2026-04-20 17:17 50.08346 2.41964 37191 ft 419 kts 15°
2026-04-20 17:18 50.13749 2.45315 37188 ft 421 kts 15°
2026-04-20 17:18 50.19208 2.48774 37198 ft 424 kts 17°
2026-04-20 17:19 50.24600 2.52518 37197 ft 426 kts 18°
2026-04-20 17:19 50.30030 2.56190 37199 ft 427 kts 17°
2026-04-20 17:20 50.35536 2.59778 37202 ft 428 kts 16°
2026-04-20 17:20 50.41028 2.63359 37218 ft 431 kts 19°
2026-04-20 17:21 50.46411 2.67557 37211 ft 433 kts 20°
2026-04-20 17:21 50.51865 2.71597 37210 ft 431 kts 18°
2026-04-20 17:22 50.57360 2.75304 37211 ft 430 kts 17°
2026-04-20 17:22 50.62876 2.78880 37211 ft 430 kts 22°
2026-04-20 17:23 50.67919 2.84208 37217 ft 437 kts 31°
2026-04-20 17:23 50.72988 2.89427 37214 ft 434 kts 24°
2026-04-20 17:24 50.78338 2.93713 37218 ft 432 kts 20°
2026-04-20 17:24 50.83861 2.97587 37219 ft 432 kts 18°
2026-04-20 17:25 50.89087 3.02355 37236 ft 438 kts 30°
2026-04-20 17:25 50.94226 3.07485 37229 ft 436 kts 25°
2026-04-20 17:26 50.99621 3.11920 37229 ft 435 kts 21°
2026-04-20 17:26 51.05097 3.15890 37227 ft 434 kts 19°
2026-04-20 17:27 51.10638 3.19755 37225 ft 433 kts 19°
2026-04-20 17:27 51.16144 3.23563 37228 ft 433 kts 19°
2026-04-20 17:28 51.21654 3.27373 37224 ft 432 kts 19°
2026-04-20 17:28 51.27188 3.31201 37221 ft 431 kts 19°
2026-04-20 17:29 51.32430 3.35757 37244 ft 435 kts 34°
2026-04-20 17:29 51.37139 3.41779 37221 ft 434 kts 32°
2026-04-20 17:30 51.42248 3.46956 37220 ft 431 kts 25°
2026-04-20 17:30 51.47571 3.51263 37223 ft 430 kts 21°
2026-04-20 17:31 51.52981 3.55318 37228 ft 430 kts 24°
2026-04-20 17:31 51.58004 3.60718 37224 ft 435 kts 32°
2026-04-20 17:32 51.63037 3.66034 37225 ft 433 kts 27°
2026-04-20 17:32 51.68328 3.70649 37220 ft 433 kts 23°
2026-04-20 17:33 51.73752 3.74913 37220 ft 433 kts 22°
2026-04-20 17:33 51.78920 3.79804 37234 ft 435 kts 34°
2026-04-20 17:34 51.83820 3.85590 37219 ft 434 kts 30°
2026-04-20 17:34 51.88976 3.90574 37228 ft 432 kts 27°
2026-04-20 17:35 51.94145 3.95535 37221 ft 433 kts 27°
2026-04-20 17:35 51.99396 4.00367 37213 ft 431 kts 32°
2026-04-20 17:36 52.04077 4.06444 37229 ft 433 kts 36°
2026-04-20 17:36 52.08965 4.12091 37225 ft 431 kts 29°
2026-04-20 17:37 52.14205 4.16869 37212 ft 429 kts 22°
2026-04-20 17:37 52.19693 4.20609 37223 ft 428 kts 19°
2026-04-20 17:38 52.24997 4.24942 37232 ft 431 kts 31°
2026-04-20 17:38 52.30068 4.30262 37220 ft 431 kts 30°
2026-04-20 17:39 52.35280 4.35025 37227 ft 430 kts 26°
2026-04-20 17:39 52.40585 4.39507 37218 ft 430 kts 25°
2026-04-20 17:40 52.45895 4.44035 37211 ft 429 kts 30°
2026-04-20 17:40 52.51070 4.48637 37222 ft 422 kts 24°
2026-04-20 17:41 52.56477 4.52421 37228 ft 422 kts 20°
2026-04-20 17:41 52.61777 4.56877 37230 ft 432 kts 26°
2026-04-20 17:42 52.66955 4.62001 37231 ft 434 kts 25°
2026-04-20 17:42 52.71425 4.65708 37228 ft 433 kts 18°
2026-04-20 17:43 52.77730 4.70743 37264 ft 433 kts 26°
2026-04-20 17:43 52.81824 4.75529 37259 ft 431 kts 33°
2026-04-20 17:44 52.86725 4.81174 37254 ft 428 kts 28°
2026-04-20 17:44 52.92025 4.85639 37270 ft 426 kts 25°
2026-04-20 17:45 52.97089 4.90684 37300 ft 426 kts 36°
2026-04-20 17:45 53.01741 4.96756 37285 ft 427 kts 37°